星链-6190 (STARLINK-6190 )

导读 | 豆包AI

STARLINK-6190是美国SpaceX星链星座的一员,于2023年5月31日发射升空。星链项目旨在构建全球卫星互联网,为全球用户提供高速低延迟的网络服务,覆盖偏远地区、海洋、空中等传统网络难以抵达的区域,该卫星入轨后进一步扩充了星链星座的规模,提升了服务覆盖能力。

基本信息
目录编号:
56774
目录名称:
STARLINK-6190
国际标识:
2023-078H
轨道中心:
EARTH
卫星名称:
星链-6190
卫星全名:
星链-6190 (STARLINK-6190 )
卫星状态:
在轨 (已飞行1019 天)
发射日期:
2023-05-31 UTC
国别 :
美国 (US)
星等 :
--
轨道信息
数据来源 国际轨道数据 AOE轨道数据
星历时间 2026-03-15T11:47:14+0800
16小时前
查看轨道信息
2026-03-11T16:00:00+0800
4天前
查看轨道信息
半长轴 6950.144km 6950.174km
偏心率 0.0002147 0.0002994
轨道倾角 70.002° 70.006°
近地点辐角 258.843° 300.980°
升交点赤经 350.770° 0.408°
平近点角 101.249° 315.838°
近地点 570.514km 569.956km
远地点 573.5km 574.118km
周期 96.106分钟 96.107分钟
每日圈数 14.983459 14.983363
详细信息
固有亮度:
5
最大亮度:
2.5
卫星平台:
Starlink v1.5
覆盖范围:
全球
运营商:
太空探索技术公司
运营商所在国:
美国
制造商(研发单位):
太空探索技术公司
制造商所在国:
美国
使用方式:
暂无
卫星简介
星链(Starlink)计划是由太空探索技术公司(SpaceX)提出的一个巨型低轨卫星互联网星座项目,计划在2019年至2024年间在太空搭建由约1.2万颗卫星组成的“星链”网络,其中1584颗将部署在地球上空550千米处的近地轨道,并从2020年开始工作。该卫星仍在工作。
2D轨道图
3D轨道图
轨道高度分析图
轨道倾角分析图
轨道综合分析图
查看轨道综合分析图